EW8728 Weather Reports


time (UTC)temp
F
wind
direction
speed
knots
gust
knots
rain 1hr
in
rain 24hr
in
rain mn
in
humidity
%
barometer
mb
20260507181524 59 32 0.0 0.9 0.00 0.03 0.03 62 1013.0
20260507180024 60 39 0.0 0.0 0.00 0.03 0.03 63 1012.8
20260507174533 60 32 0.0 0.9 0.00 0.03 0.03 60 1012.7
20260507173029 61 33 0.0 1.7 0.00 0.03 0.03 59 1012.6
20260507171522 62 63 0.0 0.0 0.00 0.03 0.03 57 1012.5
20260507170022 63 31 0.0 1.7 0.00 0.03 0.03 57 1012.3
20260507164520 63 82 0.0 0.0 0.00 0.03 0.03 58 1012.4
20260507163019 62 117 0.0 0.0 0.00 0.03 0.03 58 1012.6
20260507161516 63 36 0.0 0.9 0.00 0.03 0.03 59 1012.5
20260507160019 61 59 0.0 0.0 0.00 0.03 0.03 63 1012.7
20260507154524 62 80 0.0 0.9 0.00 0.03 0.03 60 1012.7
20260507153028 64 32 0.0 2.6 0.00 0.03 0.03 56 1012.6
20260507151510 63 331 0.0 1.7 0.00 0.03 0.03 60 1012.6
20260507150007 63 34 0.0 0.9 0.00 0.03 0.03 59 1012.8
20260507144503 61 111 0.0 0.0 0.00 0.04 0.03 63 1012.8
20260507143111 60 26 0.0 3.5 0.00 0.04 0.03 65 1012.9
20260507141558 60 9 0.0 1.7 0.00 0.04 0.03 67 1012.9
20260507140057 60 37 0.0 0.9 0.00 0.04 0.03 65 1013.0
20260507134559 61 115 0.0 0.0 0.00 0.10 0.03 63 1013.1
20260507133100 62 31 0.0 0.9 0.00 0.10 0.03 63 1013.2
20260507131611 63 124 0.0 0.9 0.00 0.10 0.03 63 1013.3
20260507130050 62 32 0.0 0.0 0.00 0.10 0.03 68 1013.3
20260507124550 61 36 0.0 1.7 0.00 0.20 0.03 62 1013.4
20260507123048 62 25 0.0 0.0 0.00 0.20 0.03 66 1013.3
20260507121547 60 5 0.0 4.3 0.00 0.20 0.03 68 1013.4
20260507120045 60 18 0.0 1.7 0.00 0.20 0.03 69 1013.3
20260507114546 60 42 0.0 0.9 0.00 0.20 0.03 73 1013.3
20260507113040 59 261 0.0 1.7 0.00 0.20 0.03 76 1013.4
20260507111536 57 23 0.0 1.7 0.00 0.20 0.03 78 1013.5
20260507110032 56 30 0.0 1.7 0.00 0.20 0.03 77 1013.7
20260507104528 55 17 0.0 0.0 0.00 0.20 0.03 82 1013.7
20260507103029 53 339 0.0 2.6 0.00 0.20 0.03 81 1013.9
20260507101522 53 313 0.0 0.0 0.00 0.20 0.03 83 1014.0
20260507100026 52 37 0.0 2.6 0.00 0.20 0.03 85 1014.1
20260507094514 51 18 0.0 1.7 0.00 0.20 0.03 87 1014.1
20260507093011 51 13 0.0 0.9 0.00 0.20 0.03 87 1014.0
20260507091508 50 321 0.0 3.5 0.00 0.20 0.03 87 1014.0
20260507090005 50 282 0.0 4.3 0.01 0.20 0.03 87 1013.9
20260507084602 50 306 0.0 0.0 0.01 0.21 0.03 88 1013.8
20260507083101 49 292 0.0 0.0 0.01 0.21 0.03 88 1013.7
20260507081555 49 320 0.0 0.0 0.01 0.21 0.03 88 1013.6
20260507080107 49 321 0.0 1.7 0.01 0.20 0.02 89 1013.6
20260507074552 49 327 0.0 0.0 0.02 0.20 0.02 90 1013.5
20260507073049 48 327 0.0 0.0 0.02 0.20 0.02 89 1013.5
20260507071603 48 327 0.0 0.0 0.02 0.20 0.02 89 1013.4
20260507070043 48 327 0.0 0.9 0.01 0.20 0.02 89 1013.3
20260507064539 48 314 0.0 0.0 0.00 0.19 0.01 89 1013.2
20260507063042 47 308 0.0 0.0 0.00 0.19 0.01 89 1013.1
20260507061533 47 311 0.0 0.0 0.00 0.19 0.01 89 1013.0
20260507060035 47 336 0.0 0.0 0.00 0.19 0.01 89 1012.9
20260507054527 46 336 0.0 0.0 0.00 0.19 0.01 90 1012.8
20260507053032 46 336 0.0 0.0 0.00 0.19 0.01 89 1012.6
20260507051530 46 336 0.0 0.0 0.00 0.19 0.01 89 1012.5
20260507050021 46 336 0.0 0.0 0.00 0.19 0.01 89 1012.3
20260507044515 46 350 0.0 0.0 0.01 0.19 0.01 89 1012.1
20260507043014 46 350 0.0 0.0 0.01 0.19 0.01 89 1012.0
20260507041513 46 350 0.0 0.0 0.01 0.19 0.01 88 1011.9
20260507040013 46 350 0.0 0.0 0.01 0.19 0.01 88 1011.9
20260507034523 46 350 0.0 0.0 0.00 0.18 0.00 87 1011.8
20260507033015 46 350 0.0 0.0 0.00 0.18 0.00 87 1011.7
20260507031509 46 350 0.0 0.0 0.00 0.18 0.00 87 1011.5
20260507030007 46 350 0.0 0.0 0.00 0.18 0.00 86 1011.5
20260507024507 46 5 0.0 0.0 0.00 0.18 0.00 86 1011.5
20260507023013 46 294 0.0 0.0 0.00 0.18 0.00 86 1011.5
20260507021505 46 294 0.0 0.0 0.00 0.18 0.00 86 1011.3
20260507020006 46 299 0.0 0.0 0.00 0.18 0.00 86 1011.3
20260507014501 46 299 0.0 0.0 0.00 0.18 0.00 86 1011.1
20260507013059 46 299 0.0 0.0 0.00 0.18 0.00 87 1011.0
20260507011604 46 299 0.0 0.0 0.00 0.18 0.00 88 1010.9
20260507010109 45 299 0.0 0.0 0.00 0.18 0.00 88 1010.9
20260507004612 45 299 0.0 0.9 0.00 0.18 0.00 88 1010.8
20260507003059 45 299 0.0 0.0 0.00 0.18 0.00 88 1010.8
20260507001557 45 299 0.0 0.0 0.00 0.18 0.00 87 1010.8
20260507000055 45 299 0.0 0.0 0.00 0.18 0.00 88 1010.8
20260506234554 46 299 0.0 0.0 0.00 0.18 0.00 88 1010.7
20260506233057 46 301 0.0 0.0 0.00 0.18 0.00 88 1010.6
20260506231553 46 347 0.0 0.9 0.00 0.18 0.00 88 1010.5
20260506230050 45 347 0.0 0.0 0.00 0.18 0.00 88 1010.5
20260506224550 46 347 0.0 0.0 0.00 0.19 0.00 88 1010.4
20260506223049 46 347 0.0 0.0 0.00 0.19 0.00 88 1010.4
20260506221547 46 347 0.0 0.0 0.00 0.19 0.00 88 1010.4
20260506220049 46 349 0.0 0.0 0.00 0.19 0.00 88 1010.3
20260506214551 46 349 0.0 0.0 0.00 0.21 0.19 87 1010.3
20260506213043 46 349 0.0 0.0 0.00 0.21 0.19 86 1010.2
20260506211542 46 349 0.0 0.0 0.00 0.21 0.19 86 1010.3
20260506210041 46 350 0.0 0.0 0.00 0.21 0.19 87 1010.2
20260506204548 46 360 0.0 2.6 0.00 0.23 0.19 86 1010.1
20260506203040 46 277 0.0 0.0 0.00 0.23 0.19 86 1010.1
20260506201539 47 277 0.0 0.0 0.00 0.23 0.19 86 1010.0
20260506200137 47 277 0.0 2.6 0.00 0.23 0.19 85 1010.1
20260506194534 48 278 0.0 0.0 0.00 0.23 0.19 84 1009.8
20260506193034 48 278 0.0 4.3 0.00 0.23 0.19 83 1009.6
20260506191530 48 264 0.0 0.9 0.00 0.23 0.19 83 1009.4
20260506190028 48 314 0.0 1.7 0.00 0.23 0.19 83 1009.2
20260506184528 48 273 0.0 0.0 0.00 0.23 0.19 83 1009.2
20260506183027 49 334 0.0 2.6 0.00 0.23 0.19 83 1009.0